Location: Churchill Northern Studies Centre
(58.7378°N, 93.8201°W)
Time: 15:43:36
(UTC-06:00)

Vanguard 1 - All Passes

Search period start: 12 December 2017 00:00
Search period end: 22 December 2017 00:00
Orbit: 650 x 3833 km, 34.2° (Epoch: 10 December)

Date Brightness Start Highest point End Pass type
(mag) Time Alt. Az. Time Alt. Az. Time Alt. Az.
12 Dec - 09:07:50 10° SSW 09:19:02 18° SSE 09:27:39 10° ESE daylight
12 Dec - 11:27:57 10° SW 11:39:28 22° S 11:47:30 10° SE daylight
12 Dec - 13:52:16 10° WSW 13:58:42 15° SSW 14:03:40 10° S daylight
13 Dec - 07:14:48 10° SSE 07:18:56 11° SE 07:22:47 10° SE visible
13 Dec - 09:26:46 10° SSW 09:39:32 21° SSE 09:49:00 10° ESE daylight
13 Dec - 11:48:18 10° SW 11:59:56 23° S 12:07:59 10° SE daylight
13 Dec - 14:13:51 10° WSW 14:18:52 13° SW 14:22:58 10° S daylight
14 Dec - 07:29:48 10° S 07:39:15 15° SSE 07:47:19 10° ESE visible
14 Dec - 09:46:14 10° SSW 10:00:04 24° S 10:10:01 10° SE daylight
14 Dec - 12:08:52 10° WSW 12:20:21 22° SSW 12:28:18 10° SSE daylight
14 Dec - 14:36:34 10° SW 14:38:56 11° SW 14:41:04 10° SSW daylight
15 Dec - 07:47:20 10° S 07:59:38 19° SSE 08:09:39 10° ESE visible
15 Dec - 10:06:04 10° SW 10:20:35 26° S 10:30:48 10° SE daylight
15 Dec - 12:29:40 10° WSW 12:40:41 21° SSW 12:48:25 10° SSE daylight
16 Dec - 08:05:51 10° SSW 08:20:03 22° SSE 08:31:14 10° ESE visible
16 Dec - 10:26:13 10° SW 10:41:05 27° S 10:51:25 10° SE daylight
16 Dec - 12:50:42 10° WSW 13:00:56 20° SSW 13:08:17 10° SSE daylight
17 Dec - 06:11:16 10° SSE 06:19:41 13° SE 06:27:21 10° ESE visible
17 Dec - 08:24:59 10° SSW 08:40:31 25° SSE 08:52:26 10° ESE daylight
17 Dec - 10:46:36 10° SW 11:01:32 27° S 11:11:54 10° SE daylight
17 Dec - 13:12:03 10° WSW 13:21:05 17° SW 13:27:50 10° S daylight
18 Dec - 06:27:50 10° S 06:39:53 17° SE 06:50:29 10° ESE visible
18 Dec - 08:44:34 10° SW 09:01:00 27° SSE 09:13:23 10° ESE daylight
18 Dec - 11:07:12 10° WSW 11:21:57 27° SSW 11:32:12 10° SE daylight
18 Dec - 13:33:49 10° WSW 13:41:07 15° SW 13:46:54 10° SSW daylight
19 Dec - 06:45:47 10° S 07:00:10 21° SSE 07:12:29 10° ESE visible
19 Dec - 09:04:28 10° SW 09:21:31 29° S 09:34:09 10° ESE daylight
19 Dec - 11:28:00 10° WSW 11:42:18 26° SSW 11:52:19 10° SSE daylight
19 Dec - 13:56:34 10° WSW 14:01:02 12° SW 14:04:55 10° SSW daylight
20 Dec - 04:55:54 10° SE 05:00:02 11° SE 05:04:06 10° ESE visible
20 Dec - 07:04:32 10° SSW 07:20:30 24° SSE 07:33:57 10° ESE visible
20 Dec - 09:24:39 10° SW 09:42:00 30° S 09:54:45 10° SE daylight
20 Dec - 11:49:00 10° WSW 12:02:33 24° SSW 12:12:14 10° SSE daylight
21 Dec - 05:09:52 10° SSE 05:20:01 15° SE 05:29:42 10° ESE visible
21 Dec - 07:23:48 10° SSW 07:40:54 28° SSE 07:55:05 10° ESE visible
21 Dec - 09:45:03 10° WSW 10:02:28 31° S 10:15:12 10° SE daylight
21 Dec - 12:10:14 10° WSW 12:22:42 21° SSW 12:31:52 10° S daylight
